Regional Weather Roundup
Issued by NWS

Home | Current Version | Previous Version | Text Only | Print | Product List | Glossary Off
Versions: 1 2 3 4 5 6 7 8 9 10 11 12 13 14 15 16 17 18 19 20 21 22 23 24 25 26 27 28 29 30 31 32 33 34 35 36 37 38 39 40 41 42 43 44 45 46 47 48 49 50

000
ASUS43 KMPX 301410
RWRMN
WEATHER ROUNDUP FOR MINNESOTA
NATIONAL WEATHER SERVICE TWIN CITIES/CHANHASSEN MN
900 AM CDT WED JUL 30 2014


NOTE: "FAIR" INDICATES FEW OR NO CLOUDS BELOW 12,000 FEET WITH NO
SIGNIFICANT WEATHER AND/OR OBSTRUCTIONS TO VISIBILITY. N/A MEANS
CURRENT SKY AND/OR WEATHER CONDITIONS ARE NOT AVAILABLE.

MNZ060>063-068>070-301500-
   Twin Cities Metro

CITY           SKY/WX    TMP DP  RH WIND       PRES   REMARKS
TWIN CITIES    SUNNY     69  58  67 N5        30.09S
ST PAUL        SUNNY     66  59  78 CALM      30.10R
CRYSTAL        SUNNY     68  57  68 N3        30.09R
BLAINE         SUNNY     66  61  82 NW3       30.09S
LAKEVILLE      SUNNY     64  59  82 CALM      30.10S
EDEN PRAIRIE   SUNNY     69  58  67 CALM      30.09R
SOUTH ST PAUL  SUNNY     67  58  73 CALM      30.09S
LAKE ELMO      FAIR      64  59  82 CALM      30.10S
$$
MNZ001>005-007-008-013>017-022>024-027-028-301500-
   Northwest Minnesota

CITY           SKY/WX    TMP DP  RH WIND       PRES   REMARKS
BEMIDJI        SUNNY     63  57  81 NW8       30.11S
HALLOCK        SUNNY     63  57  82 CALM      30.11F
ROSEAU         SUNNY     64  57  77 NW7       30.10S
WARROAD        SUNNY     64  59  82 W7        30.09S
THIEF RVR FALL SUNNY     64  55  72 NW7       30.13R
CROOKSTON      SUNNY     64  57  77 NW5       30.13S
FOSSTON        SUNNY     61  57  88 W3        30.13S
DETROIT LAKES  SUNNY     63  55  77 N5        30.15S
MOORHEAD       SUNNY     64  61  88 CALM      30.14S
PARK RAPIDS    SUNNY     64  58  80 NW6       30.12S
$$
MNZ006-009>011-018-025>026-301500-
   North Central Minnesota

CITY           SKY/WX    TMP DP  RH WIND       PRES   REMARKS
BAUDETTE       SUNNY     67  58  72 NW7       30.08S
FLAG ISLAND    SUNNY     64  57  77 NW14      30.06S
INTL FALLS     MOSUNNY   62  60  93 NW7       30.04F
WASKISH        SUNNY     66  57  72 CALM      30.08S
BIG FORK       SUNNY     63  57  82 W2        30.08S
LONGVILLE      SUNNY     64  61  88 NW3       30.09F
GRAND RAPIDS   SUNNY     63  57  82 NW7       30.09S
CRANE LAKE     PTSUNNY   57  57 100 CALM      30.06S
ORR            MOSUNNY   57  55  94 CALM      30.04S
COOK           PTSUNNY   61  57  88 CALM      30.06F
$$
MNZ012-019>021-037-301500-
   Northeast Minnesota

CITY           SKY/WX    TMP DP  RH WIND       PRES   REMARKS
DULUTH         SUNNY     63  57  81 W5        30.07F
ELY            SUNNY     57  57 100 SW3       30.06F
HIBBING        SUNNY     58  55  90 CALM      30.07F
EVELETH        FOG       57  55  94 CALM      30.08F VSB 1
DULUTH HARBOR  SUNNY     61  57  88 CALM      30.08S
TWO HARBORS    SUNNY     61  55  82 CALM      30.05F
SILVER BAY     SUNNY     61  59  94 CALM      30.04F
GRAND MARAIS     N/A     51  48  89 W6        30.03F
G MARAIS ARPRT SUNNY     59  52  77 W5        30.06S
$$
MNZ029>031-032-039>041-046>048-054>057-064-301500-
   West Central Minnesota

CITY           SKY/WX    TMP DP  RH WIND       PRES   REMARKS
FERGUS FALLS   SUNNY     64  55  72 NW3       30.14F
WHEATON        SUNNY     63  57  82 CALM      30.16S
MORRIS         SUNNY     64  59  82 N3        30.14S
ALEXANDRIA     SUNNY     67  57  70 N8        30.15S
ELBOW LAKE     FAIR      63  57  83 NW6       30.14S
WADENA         SUNNY     63  57  82 NW5       30.12F
GLENWOOD       SUNNY     66  59  77 NW6       30.14S
APPLETON       SUNNY     64  57  77 N3        30.14R
BENSON         SUNNY     64  57  77 N5        30.14S
ORTONVILLE     SUNNY     64  55  72 NW3       30.15R
MADISON        SUNNY     66  61  82 CALM      30.14S
WILLMAR        FAIR      64  57  77 W5        30.15R
$$
MNZ033>034-036-042>043-049>051-058-059-301500-
   Central Minnesota

CITY           SKY/WX    TMP DP  RH WIND       PRES   REMARKS
ST CLOUD       SUNNY     68  57  68 NW5       30.10S
SAUK CENTRE    FAIR      65  57  75 NW7       30.13S
PAYNESVILLE    SUNNY     65  56  74 W5        30.13S
AITKIN         SUNNY     66  61  82 W3        30.08S
PINE RIVER     SUNNY     66  57  72 NW5       30.13S
BRAINERD       SUNNY     65  55  70 NW8       30.11S
STAPLES        SUNNY     63  55  77 NW5       30.12S
LONG PRAIRIE   FAIR      64  55  72 W6        30.13S
LITTLE FALLS   SUNNY     64  54  68 NW3       30.11S
LITCHFIELD     SUNNY     66  61  82 NW6       30.12S
BUFFALO        SUNNY     67  57  70 CALM      30.12R
MAPLE LAKE     SUNNY     66  60  78 NW5       30.12R
$$
MNZ037-044-045-052-053-301500-
   East Central Minnesota

CITY           SKY/WX    TMP DP  RH WIND       PRES   REMARKS
PRINCETON      SUNNY     66  59  77 NW3       30.10S
MORA           SUNNY     63  57  82 CALM      30.11S
CAMBRIDGE      SUNNY     66  55  68 CALM      30.08S
RUSH CITY      SUNNY     62  56  82 CALM      30.10R
MOOSE LAKE     MOSUNNY   59  59 100 CALM      30.07S
HINCKLEY       FAIR      61  57  88 CALM      30.09S
CLOQUET        SUNNY     61  55  82 CALM      30.08S
MCGREGOR       SUNNY     63  61  94 NW3       30.09S
$$
MNZ071>073-080-081-089-090-097-098-301500-
   Southwest Minnesota

CITY           SKY/WX    TMP DP  RH WIND       PRES   REMARKS
MONTEVIDEO     SUNNY     66  63  88 NW3       30.15S
GRANITE FALLS  SUNNY     62  58  85 W5        30.16S
CANBY          SUNNY     65  57  75 NW3       30.17R
MARSHALL       SUNNY     64  55  72 NW6       30.15R
REDWOOD FALLS  SUNNY     65  57  75 W8        30.14R
OLIVIA         SUNNY     64  57  77 NW5       30.13R
PIPESTONE      SUNNY     64  54  68 N6        30.17R
WINDOM         SUNNY     64  57  77 CALM      30.15S
WORTHINGTON    SUNNY     64  55  72 NW7       30.17S
JACKSON        SUNNY     63  55  77 NW5       30.15S
TRACY          SUNNY     65  58  77 NW5       30.16S
SLAYTON        SUNNY     63  56  79 CALM      30.17S
$$
MNZ065>067-074>077-082>085-091>093-301500-
   South Central Minnesota

CITY           SKY/WX    TMP DP  RH WIND       PRES   REMARKS
MANKATO        SUNNY     64  55  72 NW7       30.12R
NEW ULM        SUNNY     64  61  88 W6        30.12S
ST JAMES       SUNNY     64  55  72 W6        30.14S
FAIRMONT       SUNNY     64  55  72 N6        30.14R
GLENCOE        SUNNY     68  58  71 NW5       30.11S
FARIBAULT      SUNNY     70  55  60 W3        30.11S
OWATONNA       SUNNY     64  57  77 CALM      30.11S
WASECA         SUNNY     61  55  82 CALM      30.13S
ALBERT LEA     MOSUNNY   64  57  77 CALM      30.12R
$$
MNZ078>079-086>088-094>096-301500-
   Southeast Minnesota

CITY           SKY/WX    TMP DP  RH WIND       PRES   REMARKS
ROCHESTER      SUNNY     65  58  78 N7        30.12R
RED WING       SUNNY     64  61  88 CALM      30.09S
STANTON        SUNNY     65  59  80 CALM      30.10R
DODGE CENTER   SUNNY     66  59  77 N5        30.11R
WINONA         SUNNY     63  59  88 CALM      30.09S
AUSTIN         SUNNY     64  57  77 N5        30.10S
PRESTON        SUNNY     63  61  94 N7        30.11R
$$
ABBREVIATIONS USED IN REMARKS
   TC - TEMPERATURES IN CELSIUS
  WCI - WIND CHILL INDEX
   HX - HEAT INDEX
  VSB - VISIBILITY
$$



USA.gov is the U.S. government's official web portal to all federal, state and local government web resources and services.